STARLINK-32320

Last updated on Thu Nov 21 2024 00:02:04 GMT+0000 (Coordinated Universal Time)

1 61638U 24191T 24325.58335648 -.01485026 00000+0 -37382-1 0 9990 2 61638 42.9992 329.7035 0001351 277.3278 77.6813 15.42199335 5645
UTC large
Height (km)
Speed (km/s)
/
Latitude / Longitude
Inclination (degrees)
Orbital Period (minutes)
Azimuth
Elevation
Range (km)
Doppler Factor

Next 0 passes for location: London (51.5072 / 0.1276)

Sorry there are no passes over London.